FW7970 Weather Reports


Display with metric or nautical units.
time (UTC)temp
F
wind
direction
speed
MPH
gust
MPH
rain 1hr
in
rain 24hr
in
rain mn
in
humidity
%
barometer
mb
20260906170311 96 76 2.0 2.0 0.00 0.00 0.00 48 1016.3
20260906165808 100 124 2.0 3.0 0.00 0.00 0.00 45 1016.3
20260906165306 99 354 1.0 1.0 0.00 0.00 0.00 45 1016.7
20260906164802 97 15 2.0 3.0 0.00 0.00 0.00 47 1016.5
20260906164256 98 346 1.0 1.0 0.00 0.00 0.00 46 1016.7
20260906163752 96 73 0.0 0.0 0.00 0.00 0.00 47 1016.6
20260906163248 96 43 0.0 1.0 0.00 0.00 0.00 47 1016.5
20260906162745 98 97 2.0 5.0 0.00 0.00 0.00 47 1016.6
20260906162239 98 40 0.0 0.0 0.00 0.00 0.00 46 1016.7
20260906161734 96 31 0.0 1.0 0.00 0.00 0.00 48 1016.8
20260906161233 96 67 3.0 3.0 0.00 0.00 0.00 50 1016.8
20260906160732 96 350 1.0 1.0 0.00 0.00 0.00 51 1016.7
20260906160232 94 27 1.0 1.0 0.00 0.00 0.00 52 1016.9
20260906155729 94 103 3.0 5.0 0.00 0.00 0.00 53 1017.1
20260906155224 96 22 0.0 0.0 0.00 0.00 0.00 51 1017.1
20260906154720 95 16 1.0 1.0 0.00 0.00 0.00 53 1016.8
20260906154215 94 12 0.0 0.0 0.00 0.00 0.00 54 1016.7
20260906153713 93 81 0.0 1.0 0.00 0.00 0.00 55 1016.8
20260906153208 91 98 1.0 2.0 0.00 0.00 0.00 55 1016.6
20260906152703 92 8 1.0 1.0 0.00 0.00 0.00 57 1016.7
20260906152157 91 41 0.0 1.0 0.00 0.00 0.00 58 1016.8
20260906151651 91 102 5.0 6.0 0.00 0.00 0.00 60 1016.6
20260906151148 90 14 1.0 2.0 0.00 0.00 0.00 61 1016.7
20260906150643 89 79 1.0 1.0 0.00 0.00 0.00 62 1016.4
20260906150138 89 99 3.0 3.0 0.00 0.00 0.00 62 1016.4
20260906145637 90 79 1.0 1.0 0.00 0.00 0.00 61 1016.7
20260906145131 88 12 0.0 0.0 0.00 0.00 0.00 62 1016.6
20260906144625 89 28 1.0 1.0 0.00 0.00 0.00 62 1016.6
20260906144120 88 7 0.0 1.0 0.00 0.00 0.00 62 1016.7
20260906143615 87 56 1.0 2.0 0.00 0.00 0.00 65 1016.7
20260906143112 86 92 2.0 2.0 0.00 0.00 0.00 66 1016.6
20260906142611 86 44 1.0 2.0 0.00 0.00 0.00 66 1016.4
20260906142106 86 106 2.0 2.0 0.00 0.00 0.00 66 1016.7
20260906141605 85 59 2.0 2.0 0.00 0.00 0.00 68 1016.6
20260906141101 84 79 2.0 2.0 0.00 0.00 0.00 69 1016.7
20260906140600 84 80 2.0 2.0 0.00 0.00 0.00 69 1016.6
20260906140055 83 49 1.0 1.0 0.00 0.00 0.00 71 1016.7
20260906135552 82 120 2.0 2.0 0.00 0.00 0.00 72 1016.5
20260906135048 82 63 0.0 1.0 0.00 0.00 0.00 71 1016.6
20260906134543 82 112 2.0 2.0 0.00 0.00 0.00 72 1016.5
20260906134038 81 62 3.0 3.0 0.00 0.00 0.00 72 1016.7
20260906133534 80 27 0.0 0.0 0.00 0.00 0.00 74 1016.5
20260906133029 80 92 1.0 2.0 0.00 0.00 0.00 75 1016.7
20260906132524 79 48 1.0 1.0 0.00 0.00 0.00 74 1016.6
20260906132019 80 62 0.0 1.0 0.00 0.00 0.00 75 1016.6
20260906131515 79 85 1.0 1.0 0.00 0.00 0.00 76 1016.5
20260906131010 78 80 1.0 1.0 0.00 0.00 0.00 77 1016.4
20260906130509 78 85 1.0 2.0 0.00 0.00 0.00 77 1016.3
20260906130005 77 78 1.0 1.0 0.00 0.00 0.00 78 1016.3
20260906125502 77 67 1.0 1.0 0.00 0.00 0.00 78 1016.3
20260906125001 77 62 1.0 1.0 0.00 0.00 0.00 79 1016.1
20260906124457 75 49 1.0 1.0 0.00 0.00 0.00 82 1016.2
20260906123957 75 53 0.0 1.0 0.00 0.00 0.00 82 1016.1
20260906123451 75 66 1.0 1.0 0.00 0.00 0.00 82 1016.0
20260906122950 74 30 0.0 0.0 0.00 0.00 0.00 83 1016.0
20260906122445 74 49 0.0 0.0 0.00 0.00 0.00 84 1015.6
20260906121942 74 75 1.0 1.0 0.00 0.00 0.00 84 1015.5
20260906121438 74 74 1.0 1.0 0.00 0.00 0.00 85 1015.8
20260906120934 74 69 1.0 1.0 0.00 0.00 0.00 84 1015.9
20260906120429 74 69 1.0 1.0 0.00 0.00 0.00 84 1015.8
20260906115925 74 68 1.0 1.0 0.00 0.00 0.00 84 1015.7
20260906115421 74 58 1.0 1.0 0.00 0.00 0.00 84 1015.4
20260906114915 74 54 1.0 1.0 0.00 0.00 0.00 83 1015.6
20260906114409 74 60 1.0 1.0 0.00 0.00 0.00 83 1015.5
20260906113905 74 55 1.0 1.0 0.00 0.00 0.00 83 1015.6
20260906113404 74 43 0.0 0.0 0.00 0.00 0.00 83 1015.6
20260906112900 74 56 0.0 1.0 0.00 0.00 0.00 83 1015.3
20260906112355 74 72 1.0 1.0 0.00 0.00 0.00 83 1015.4
20260906111850 74 75 1.0 1.0 0.00 0.00 0.00 83 1015.4
20260906111349 74 72 1.0 1.0 0.00 0.00 0.00 83 1015.4
20260906110844 74 66 1.0 1.0 0.00 0.00 0.00 84 1015.3
20260906110340 73 83 1.0 1.0 0.00 0.00 0.00 85 1015.3
20260906105839 73 83 1.0 1.0 0.00 0.00 0.00 85 1015.3
20260906105335 74 89 2.0 2.0 0.00 0.00 0.00 84 1015.3
20260906104830 75 93 2.0 2.0 0.00 0.00 0.00 83 1015.4
20260906104329 75 66 1.0 1.0 0.00 0.00 0.00 82 1015.5
20260906103822 75 46 1.0 1.0 0.00 0.00 0.00 81 1015.5
20260906103321 76 44 1.0 1.0 0.00 0.00 0.00 80 1015.5
20260906102817 76 41 0.0 0.0 0.00 0.00 0.00 79 1015.4
20260906102316 76 39 0.0 0.0 0.00 0.00 0.00 79 1015.3
20260906101811 76 39 0.0 0.0 0.00 0.00 0.00 79 1015.4
20260906101306 76 39 0.0 0.0 0.00 0.00 0.00 78 1015.2
20260906100802 76 39 0.0 0.0 0.00 0.00 0.00 79 1015.5
20260906100301 75 39 0.0 0.0 0.00 0.00 0.00 81 1015.3
20260906095756 75 39 0.0 0.0 0.00 0.00 0.00 81 1015.2
20260906095252 75 40 1.0 1.0 0.00 0.00 0.00 81 1015.3
20260906094750 75 39 1.0 1.0 0.00 0.00 0.00 80 1015.2
20260906094246 76 39 1.0 1.0 0.00 0.00 0.00 79 1015.0
20260906093742 76 39 1.0 1.0 0.00 0.00 0.00 78 1015.0
20260906093237 76 39 1.0 1.0 0.00 0.00 0.00 77 1014.7
20260906092733 77 31 0.0 0.0 0.00 0.00 0.00 76 1014.8
20260906092232 77 32 0.0 0.0 0.00 0.00 0.00 76 1015.0
20260906091728 77 20 0.0 0.0 0.00 0.00 0.00 76 1014.6
20260906091224 77 25 0.0 0.0 0.00 0.00 0.00 76 1014.5
20260906090720 77 33 0.0 0.0 0.00 0.00 0.00 76 1014.8
20260906090219 77 39 1.0 1.0 0.00 0.00 0.00 76 1014.8
20260906085719 76 30 0.0 0.0 0.00 0.00 0.00 76 1014.5
20260906085218 76 29 0.0 0.0 0.00 0.00 0.00 78 1014.5
20260906084712 76 31 0.0 0.0 0.00 0.00 0.00 79 1014.6
20260906084207 77 29 0.0 0.0 0.00 0.00 0.00 79 1014.6
20260906083702 77 29 0.0 0.0 0.00 0.00 0.00 75 1014.4
20260906083157 77 33 0.0 0.0 0.00 0.00 0.00 75 1014.6
20260906082652 77 46 1.0 1.0 0.00 0.00 0.00 75 1014.4
20260906082148 76 48 1.0 1.0 0.00 0.00 0.00 78 1014.3
20260906081643 76 46 1.0 1.0 0.00 0.00 0.00 78 1014.3
20260906081138 76 45 1.0 1.0 0.00 0.00 0.00 79 1014.3
20260906080635 77 27 0.0 0.0 0.00 0.00 0.00 77 1014.3
20260906080130 77 27 0.0 1.0 0.00 0.00 0.00 76 1014.5
20260906075624 78 22 0.0 0.0 0.00 0.00 0.00 73 1014.5
20260906075119 78 7 0.0 0.0 0.00 0.00 0.00 73 1014.4
20260906074615 78 5 0.0 0.0 0.00 0.00 0.00 73 1014.4
20260906074113 78 5 0.0 0.0 0.00 0.00 0.00 73 1014.4
20260906073608 79 6 0.0 0.0 0.00 0.00 0.00 72 1014.5
20260906073104 79 6 0.0 0.0 0.00 0.00 0.00 71 1014.5
20260906072558 78 14 0.0 0.0 0.00 0.00 0.00 71 1014.6
20260906072055 78 350 0.0 0.0 0.00 0.00 0.00 75 1014.5
20260906071551 78 349 0.0 0.0 0.00 0.00 0.00 74 1014.6
20260906071045 80 349 0.0 0.0 0.00 0.00 0.00 70 1014.7
20260906070542 80 44 0.0 1.0 0.00 0.00 0.00 68 1014.6
20260906070037 79 46 1.0 2.0 0.00 0.00 0.00 69 1014.6
20260906065537 79 43 0.0 0.0 0.00 0.00 0.00 71 1014.5
20260906065033 81 44 0.0 0.0 0.00 0.00 0.00 68 1014.6
20260906064528 81 45 0.0 0.0 0.00 0.00 0.00 66 1015.0
20260906064023 82 46 0.0 0.0 0.00 0.00 0.00 66 1014.7
20260906063518 81 35 0.0 0.0 0.00 0.00 0.00 65 1014.7
20260906063014 81 27 0.0 0.0 0.00 0.00 0.00 66 1014.8
20260906062509 81 43 0.0 0.0 0.00 0.00 0.00 65 1014.8
20260906062003 82 50 1.0 1.0 0.00 0.00 0.00 65 1015.0
20260906061459 82 46 1.0 1.0 0.00 0.00 0.00 64 1014.8
20260906060954 82 45 0.0 0.0 0.00 0.00 0.00 64 1015.0
20260906060450 82 46 0.0 0.0 0.00 0.00 0.00 63 1014.7
20260906055947 82 50 1.0 1.0 0.00 0.00 0.00 63 1014.8
20260906055442 82 54 1.0 1.0 0.00 0.00 0.00 64 1014.7
20260906054938 82 46 1.0 1.0 0.00 0.00 0.00 64 1015.0
20260906054432 82 54 1.0 1.0 0.00 0.00 0.00 64 1015.0
20260906053928 82 46 1.0 1.0 0.00 0.00 0.00 64 1015.0
20260906053424 82 46 1.0 1.0 0.00 0.00 0.00 64 1015.0
20260906052920 82 46 1.0 1.0 0.00 0.00 0.00 64 1015.0
20260906052416 81 33 0.0 1.0 0.00 0.00 0.00 65 1015.0
20260906051912 81 27 0.0 0.0 0.00 0.00 0.00 65 1015.0
20260906051412 81 29 0.0 0.0 0.00 0.00 0.00 65 1015.0
20260906050908 81 9 0.0 0.0 0.00 0.00 0.00 65 1014.8
20260906050403 81 3 0.0 0.0 0.00 0.00 0.00 65 1014.8
20260906045901 82 2 0.0 0.0 0.00 0.00 0.00 64 1014.8
20260906045355 82 17 0.0 0.0 0.00 0.00 0.00 63 1015.0
20260906044851 83 27 0.0 0.0 0.00 0.00 0.00 62 1014.8
20260906044346 84 22 0.0 0.0 0.00 0.00 0.00 60 1015.1
20260906043842 84 15 0.0 0.0 0.00 0.00 0.00 60 1015.1
20260906043338 84 17 0.0 0.0 0.00 0.00 0.00 59 1014.8
20260906042833 84 26 0.0 0.0 0.00 0.00 0.00 59 1015.2
20260906042331 84 26 0.0 0.0 0.00 0.00 0.00 59 1015.1
20260906041827 84 26 0.0 0.0 0.00 0.00 0.00 59 1015.0
20260906041322 85 60 0.0 0.0 0.00 0.00 0.00 58 1015.1
20260906040817 86 43 0.0 0.0 0.00 0.00 0.00 57 1015.0
20260906040312 86 29 0.0 0.0 0.00 0.00 0.00 55 1015.1
20260906035813 86 32 0.0 0.0 0.00 0.00 0.00 55 1014.7
20260906035308 86 15 0.0 0.0 0.00 0.00 0.00 55 1015.0
20260906034803 86 16 0.0 0.0 0.00 0.00 0.00 54 1015.0
20260906034258 86 19 0.0 0.0 0.00 0.00 0.00 55 1015.0
20260906033754 85 26 0.0 0.0 0.00 0.00 0.00 55 1014.6
20260906033253 86 27 0.0 0.0 0.00 0.00 0.00 55 1014.6
20260906032749 85 23 0.0 0.0 0.00 0.00 0.00 55 1015.0
20260906032244 85 11 0.0 0.0 0.00 0.00 0.00 55 1014.6
20260906031739 86 10 0.0 0.0 0.00 0.00 0.00 55 1014.8
20260906031236 86 9 0.0 0.0 0.00 0.00 0.00 55 1014.6
20260906030735 86 10 0.0 0.0 0.00 0.00 0.00 54 1014.7
20260906030230 86 10 0.0 0.0 0.00 0.00 0.00 54 1014.7
20260906025729 86 10 0.0 0.0 0.00 0.00 0.00 53 1014.5
20260906025223 86 6 0.0 0.0 0.00 0.00 0.00 53 1014.4
20260906024723 86 6 0.0 0.0 0.00 0.00 0.00 53 1014.5
20260906024222 87 14 0.0 0.0 0.00 0.00 0.00 53 1014.2
20260906023718 87 27 0.0 0.0 0.00 0.00 0.00 53 1014.1
20260906023213 87 43 0.0 0.0 0.00 0.00 0.00 53 1014.2
20260906022708 87 43 0.0 0.0 0.00 0.00 0.00 53 1014.3
20260906022203 87 44 0.0 1.0 0.00 0.00 0.00 53 1014.2
20260906021700 87 36 0.0 1.0 0.00 0.00 0.00 54 1014.1
20260906021157 86 28 0.0 0.0 0.00 0.00 0.00 55 1014.0
20260906020653 87 35 0.0 0.0 0.00 0.00 0.00 55 1014.0
20260906020148 87 38 1.0 2.0 0.00 0.00 0.00 53 1014.2
20260906015642 87 63 0.0 1.0 0.00 0.00 0.00 54 1013.9
20260906015140 86 61 1.0 1.0 0.00 0.00 0.00 56 1013.7
20260906014635 86 62 1.0 1.0 0.00 0.00 0.00 57 1013.7
20260906014131 87 44 1.0 1.0 0.00 0.00 0.00 55 1013.8
20260906013626 87 61 2.0 2.0 0.00 0.00 0.00 54 1013.8
20260906013122 87 35 0.0 1.0 0.00 0.00 0.00 54 1013.5
20260906012617 87 29 0.0 0.0 0.00 0.00 0.00 55 1013.5
20260906012117 87 29 0.0 0.0 0.00 0.00 0.00 54 1013.6
20260906011612 88 27 0.0 0.0 0.00 0.00 0.00 53 1013.3
20260906011107 88 27 0.0 0.0 0.00 0.00 0.00 53 1013.2
20260906010602 89 37 0.0 0.0 0.00 0.00 0.00 53 1013.5
20260906010059 89 71 1.0 1.0 0.00 0.00 0.00 52 1013.1
20260906005558 89 25 0.0 0.0 0.00 0.00 0.00 52 1013.0
20260906005056 89 26 0.0 0.0 0.00 0.00 0.00 51 1013.1
20260906004550 90 39 0.0 0.0 0.00 0.00 0.00 50 1013.1
20260906004045 90 32 0.0 0.0 0.00 0.00 0.00 49 1012.9
20260906003540 91 33 0.0 0.0 0.00 0.00 0.00 49 1013.0
20260906003036 91 25 0.0 0.0 0.00 0.00 0.00 49 1013.1
20260906002531 91 31 0.0 0.0 0.00 0.00 0.00 48 1013.4
20260906002026 92 38 0.0 0.0 0.00 0.00 0.00 47 1013.3
20260906001521 93 30 0.0 0.0 0.00 0.00 0.00 47 1013.3
20260906001015 93 48 1.0 1.0 0.00 0.00 0.00 46 1013.1
20260906000512 94 28 0.0 0.0 0.00 0.00 0.00 45 1013.1
20260906000006 95 20 0.0 0.0 0.00 0.00 0.00 44 1013.1
20260905235500 95 2 0.0 0.0 0.00 0.00 0.00 43 1013.1
20260905234955 95 24 0.0 0.0 0.00 0.00 0.00 42 1013.0
20260905234450 96 45 0.0 0.0 0.00 0.00 0.00 41 1013.2
20260905233944 96 22 0.0 0.0 0.00 0.00 0.00 40 1013.0
20260905233440 97 12 0.0 1.0 0.00 0.00 0.00 40 1013.1
20260905232939 98 70 1.0 1.0 0.00 0.00 0.00 39 1013.4
20260905232435 98 330 2.0 2.0 0.00 0.00 0.00 38 1013.2
20260905231931 98 98 1.0 2.0 0.00 0.00 0.00 39 1013.0
20260905231426 99 108 1.0 1.0 0.00 0.00 0.00 38 1013.0
20260905230923 99 121 0.0 1.0 0.00 0.00 0.00 38 1012.9
20260905230421 100 62 1.0 1.0 0.00 0.00 0.00 37 1012.8
20260905225919 100 6 0.0 0.0 0.00 0.00 0.00 37 1012.8
20260905225414 99 13 0.0 0.0 0.00 0.00 0.00 37 1012.8
20260905224909 100 99 1.0 1.0 0.00 0.00 0.00 37 1012.9
20260905224406 100 160 1.0 1.0 0.00 0.00 0.00 36 1013.0
20260905223859 101 247 0.0 0.0 0.00 0.00 0.00 36 1013.1
20260905223357 101 17 1.0 2.0 0.00 0.00 0.00 36 1012.7
20260905222851 100 124 2.0 3.0 0.00 0.00 0.00 36 1012.8
20260905222350 101 197 2.0 3.0 0.00 0.00 0.00 35 1012.9
20260905221841 101 158 1.0 1.0 0.00 0.00 0.00 35 1012.7
20260905221337 101 61 1.0 2.0 0.00 0.00 0.00 34 1012.7
20260905220833 102 51 1.0 1.0 0.00 0.00 0.00 35 1012.7
20260905220329 102 5 1.0 1.0 0.00 0.00 0.00 33 1012.9
20260905215828 103 355 0.0 0.0 0.00 0.00 0.00 32 1012.9
20260905215324 103 4 1.0 1.0 0.00 0.00 0.00 33 1013.0
20260905214820 102 4 1.0 1.0 0.00 0.00 0.00 34 1013.0
20260905214315 103 228 3.0 3.0 0.00 0.00 0.00 33 1013.2
20260905213810 103 264 1.0 2.0 0.00 0.00 0.00 33 1013.0
20260905213307 102 263 3.0 6.0 0.00 0.00 0.00 33 1013.1
20260905212801 101 22 1.0 2.0 0.00 0.00 0.00 34 1013.0
20260905212301 103 12 1.0 1.0 0.00 0.00 0.00 33 1013.4
20260905211755 103 352 0.0 0.0 0.00 0.00 0.00 33 1013.3
20260905211250 103 137 1.0 1.0 0.00 0.00 0.00 33 1013.1
20260905210748 104 130 3.0 3.0 0.00 0.00 0.00 34 1013.5
20260905210247 104 351 0.0 1.0 0.00 0.00 0.00 33 1013.3
20260905205746 103 321 2.0 2.0 0.00 0.00 0.00 33 1013.5
20260905205241 103 28 1.0 2.0 0.00 0.00 0.00 33 1013.7
20260905204740 104 237 4.0 5.0 0.00 0.00 0.00 34 1013.5
20260905204236 105 359 1.0 2.0 0.00 0.00 0.00 32 1013.6
20260905203735 104 340 0.0 1.0 0.00 0.00 0.00 33 1013.7
20260905203231 104 98 2.0 2.0 0.00 0.00 0.00 33 1013.7
20260905202726 102 292 1.0 1.0 0.00 0.00 0.00 33 1013.8
20260905202221 102 112 1.0 2.0 0.00 0.00 0.00 33 1013.8
20260905201716 101 78 2.0 2.0 0.00 0.00 0.00 35 1013.9
20260905201211 103 351 1.0 1.0 0.00 0.00 0.00 33 1013.8
20260905200706 100 109 1.0 2.0 0.00 0.00 0.00 35 1014.1
20260905200202 102 115 3.0 5.0 0.00 0.00 0.00 36 1014.1
20260905195700 103 145 1.0 1.0 0.00 0.00 0.00 34 1014.1
20260905195155 104 19 1.0 1.0 0.00 0.00 0.00 34 1014.2
20260905194650 103 84 3.0 3.0 0.00 0.00 0.00 35 1014.3
20260905194149 103 99 1.0 1.0 0.00 0.00 0.00 34 1014.4
20260905193644 101 105 4.0 5.0 0.00 0.00 0.00 34 1014.4
20260905193139 101 350 1.0 1.0 0.00 0.00 0.00 35 1014.4
20260905192634 101 350 1.0 1.0 0.00 0.00 0.00 35 1014.4
20260905192131 101 96 2.0 2.0 0.00 0.00 0.00 36 1014.4
20260905191630 102 107 2.0 2.0 0.00 0.00 0.00 36 1014.7
20260905191128 103 289 1.0 2.0 0.00 0.00 0.00 34 1014.6
20260905190627 103 102 2.0 3.0 0.00 0.00 0.00 34 1014.8
20260905190121 101 14 1.0 1.0 0.00 0.00 0.00 35 1015.0
20260905185620 103 357 1.0 1.0 0.00 0.00 0.00 34 1015.0
20260905185114 102 102 5.0 6.0 0.00 0.00 0.00 36 1015.0
20260905184609 101 108 2.0 2.0 0.00 0.00 0.00 37 1015.0
20260905184108 100 102 2.0 2.0 0.00 0.00 0.00 37 1015.1
20260905183607 99 255 1.0 1.0 0.00 0.00 0.00 37 1015.3
20260905183103 102 307 1.0 1.0 0.00 0.00 0.00 35 1015.1
20260905182602 102 20 0.0 0.0 0.00 0.00 0.00 35 1015.5
20260905182056 103 338 1.0 1.0 0.00 0.00 0.00 35 1015.4
20260905181550 102 90 4.0 5.0 0.00 0.00 0.00 37 1015.4
20260905181044 101 263 3.0 3.0 0.00 0.00 0.00 35 1015.6
20260905180539 101 112 3.0 5.0 0.00 0.00 0.00 37 1015.7
20260905180035 100 226 4.0 5.0 0.00 0.00 0.00 35 1016.0
20260905175533 102 241 3.0 3.0 0.00 0.00 0.00 36 1015.9
20260905175030 101 79 2.0 6.0 0.00 0.00 0.00 35 1015.8
20260905174525 102 162 2.0 2.0 0.00 0.00 0.00 36 1015.9
20260905174020 99 68 2.0 3.0 0.00 0.00 0.00 37 1015.9
20260905173517 101 22 1.0 1.0 0.00 0.00 0.00 37 1016.0
20260905173012 100 123 1.0 1.0 0.00 0.00 0.00 37 1016.1
20260905172510 99 87 4.0 5.0 0.00 0.00 0.00 40 1015.8
20260905172006 100 70 3.0 3.0 0.00 0.00 0.00 40 1016.0
20260905171502 100 117 3.0 5.0 0.00 0.00 0.00 40 1016.3
20260905170958 99 115 5.0 7.0 0.00 0.00 0.00 40 1016.2